Minneapolis Flying Cloud, MN

6:50 AM CST on November 13, 2019 (GMT -0600)
Flying Cloud

Weather History for KFCM - September, 2019

Change the Weather History Date:

Monday, September 9, 2019

  Actual Average Record
Temperature  
Mean Temperature 62 °F -  
Max Temperature 69 °F 76 °F 95 °F (2013)
Min Temperature 57 °F 55 °F 41 °F (2008)
Degree Days  
Heating Degree Days 2    
Growing Degree Days 12 (Base 50)    
Moisture  
Dew Point 58 °F    
Average Humidity 88    
Maximum Humidity 93    
Minimum Humidity 80    
Precipitation  
Precipitation 0.29 in - - ()
Sea Level Pressure  
Sea Level Pressure 29.96 in    
Wind  
Wind Speed 11 mph (ESE)    
Max Wind Speed 18 mph    
Max Gust Speed 26 mph    
Visibility 7 miles    
Events Rain    
Averages and records for this station are not official NWS values.
T = Trace of Precipitation, MM = Missing Value Source: NWS Daily Summary

Daily Weather History Graph

Daily Weather History Graph

Search for Another Location

Airport or City:

Astronomy

Sep. 09, 2019 Rise Set
Actual Time 6:45 AM CDT 7:36 PM CDT
Civil Twilight 6:15 AM CDT 8:05 PM CDT
Nautical Twilight 5:40 AM CDT 8:41 PM CDT
Astronomical Twilight 5:03 AM CDT 9:18 PM CDT
Moon 5:43 PM CDT (9/9) 2:04 AM CDT (9/9)
Length of Visible Light 13h 50m
Length of Day
12h 50m
Waxing Gibbous, 83% of the Moon is Illuminated
Sep 9
Waxing Gibbous
Sep 13
Full
Sep 21
Last Quarter
Sep 28
New
Oct 5
First Quarter

Hourly Weather History & Observations

Time (CDT) Temp. Dew Point Humidity Pressure Visibility Wind Dir Wind Speed Gust Speed Precip Events Conditions
12:53 AM 59.0 °F 54.0 °F 83% 30.12 in 10.0 mi ESE 8.1 mph - N/A   Overcast
1:53 AM 59.0 °F 54.0 °F 83% 30.12 in 10.0 mi East 10.4 mph - N/A   Overcast
2:53 AM 57.9 °F 54.0 °F 87% 30.10 in 10.0 mi East 10.4 mph - N/A   Overcast
3:53 AM 57.9 °F 54.0 °F 87% 30.09 in 10.0 mi East 8.1 mph - N/A   Overcast
4:53 AM 57.9 °F 54.0 °F 87% 30.09 in 10.0 mi ESE 11.5 mph - N/A   Overcast
5:53 AM 57.9 °F 54.0 °F 87% 30.08 in 10.0 mi ESE 10.4 mph - N/A   Overcast
6:50 AM 57.2 °F 53.6 °F 88% 30.07 in 10.0 mi East 11.5 mph - N/A   Overcast
6:53 AM 57.9 °F 54.0 °F 87% 30.08 in 10.0 mi ESE 12.7 mph - N/A   Overcast
7:29 AM 59.0 °F 54.0 °F 83% 30.07 in 10.0 mi ESE 13.8 mph - N/A   Overcast
7:53 AM 59.0 °F 54.0 °F 83% 30.07 in 10.0 mi ESE 16.1 mph 23.0 mph N/A   Overcast
8:53 AM 59.0 °F 54.0 °F 83% 30.06 in 10.0 mi East 10.4 mph 20.7 mph N/A   Overcast
9:53 AM 60.1 °F 54.0 °F 80% 30.03 in 10.0 mi East 16.1 mph 24.2 mph N/A   Overcast
10:53 AM 60.1 °F 54.0 °F 80% 30.03 in 10.0 mi East 18.4 mph 26.5 mph N/A   Overcast
11:00 AM 60.1 °F 54.0 °F 80% 30.03 in 10.0 mi ESE 12.7 mph 26.5 mph N/A   Overcast
11:13 AM 59.0 °F 55.0 °F 87% 30.03 in 1.8 mi ESE 15.0 mph 26.5 mph 0.00 in Rain Light Rain
11:38 AM 59.0 °F 55.9 °F 90% 30.02 in 3.0 mi ESE 12.7 mph 21.9 mph 0.01 in Rain Light Rain
11:49 AM 59.0 °F 55.4 °F 88% 30.02 in 4.0 mi ESE 11.5 mph - 0.02 in Rain Light Rain
11:53 AM 59.0 °F 55.9 °F 90% 30.01 in 5.0 mi East 11.5 mph 20.7 mph 0.02 in Rain Light Rain
12:53 PM 59.0 °F 55.9 °F 90% 30.00 in 10.0 mi ESE 11.5 mph - 0.04 in   Overcast
1:53 PM 60.1 °F 57.0 °F 90% 29.96 in 10.0 mi ESE 16.1 mph 24.2 mph 0.00 in   Overcast
2:53 PM 61.0 °F 57.9 °F 90% 29.94 in 10.0 mi SE 13.8 mph - N/A   Overcast
3:53 PM 62.1 °F 59.0 °F 90% 29.93 in 10.0 mi SSE 10.4 mph - 0.01 in   Overcast
4:53 PM 62.1 °F 59.0 °F 90% 29.90 in 2.5 mi SE 13.8 mph - 0.03 in Rain Rain
5:01 PM 62.1 °F 59.0 °F 90% 29.89 in 1.0 mi SE 12.7 mph - 0.11 in Rain Heavy Rain
5:28 PM 62.1 °F 60.1 °F 93% 29.85 in 2.0 mi ESE 11.5 mph - 0.19 in Rain Rain
5:38 PM 62.1 °F 60.1 °F 93% 29.85 in 5.0 mi ESE 10.4 mph 21.9 mph 0.19 in Rain Light Rain
5:53 PM 63.0 °F 60.1 °F 90% 29.85 in 8.0 mi ESE 11.5 mph - 0.19 in Rain Light Rain
6:40 PM 64.0 °F 61.0 °F 90% 29.83 in 4.0 mi SE 15.0 mph - 0.00 in   Overcast
6:53 PM 64.0 °F 62.1 °F 93% 29.83 in 2.5 mi SE 11.5 mph - 0.00 in   Overcast
7:34 PM 64.0 °F 62.1 °F 93% 29.82 in 3.0 mi SE 10.4 mph - N/A   Overcast
8:15 PM 64.9 °F 63.0 °F 93% 29.81 in 5.0 mi SE 10.4 mph - N/A   Overcast
8:53 PM 66.0 °F 64.0 °F 93% 29.80 in 6.0 mi SE 8.1 mph - N/A   Overcast
9:53 PM 66.9 °F 64.9 °F 93% 29.79 in 6.0 mi SSE 6.9 mph - N/A   Overcast
10:53 PM 68.0 °F 64.9 °F 90% 29.79 in 5.0 mi SE 3.5 mph - N/A   Overcast
11:17 PM 68.0 °F 64.9 °F 90% 29.79 in 5.0 mi SSE 4.6 mph - N/A   Mostly Cloudy
11:53 PM 68.0 °F 64.9 °F 90% 29.79 in 5.0 mi South 6.9 mph - N/A   Clear